sat.trackr.live / text

‹ back to catalog

STARLINK-34521

NORAD 64612 · 2025-137U

PAYLOAD ACTIVE UNKNOWN

§ Identity

Operator
Country
US
Launch date
2025-06-25
Launch site
AFETR
Launch vehicle
Mass (kg)
RCS (m²)

Purposes: comms

External: N2YO · Heavens-Above · Gunter

§ Orbital elements

Epoch: 2026-05-24T23:03:26.836128Z

Period
94.10 min
Inclination
53.1596°
Eccentricity
0.0001002
Mean motion
15.30212831 rev/d
Perigee alt
474.5 km
Apogee alt
475.9 km
Semi-major
6,853.3 km
B*
8.8374e-4
RAAN
340.8684°
Arg perigee
67.5927°
Mean anomaly
292.5180°
Rev number
5,241

§ Raw data

STARLINK-345211 64612U 25137U   26144.96072727  .00025916  00000+0  88374-3 0  99992 64612  53.1596 340.8684 0001002  67.5927 292.5180 15.30212831 52417

JSON: /api/v1/satellites/64612 · /tle

For live sub-satellite position, see the globe view (requires WebGL).

§ Visibility from observer

Set your observer location to see the next 7 days of passes ≥ 10°. The values pass through the URL so the page stays shareable.

No JS? Fill the form by hand. The geolocation button needs JavaScript.